contact:dominique.lefevre@mio.osupytheas.fr, maurice.libes@osupytheas.fr, didier.mallarino@osupytheas.fr
Project:EMSO http://www.emso-fr.org/EMSO-France
Depth: 2436.0 m
Title:EMSO Ligure Ouest : Data MII capteur MICROCAT
DateTime_Computer,Latitude,Longitude,Temperature,Conductivity,Pressure,DateTime_Instrument
DateTime_Computer,Latitude,Longitude,degC,S m-1,dbar,DateTime_Instrument
2021-08-27T00:02:13Z,42.805,6.029,13.2988,4.60000,2470.38,2021-8-27T02:03:32Z
2021-08-27T00:05:16Z,42.805,6.029,13.2985,4.59999,2470.366,2021-8-27T02:06:35Z
2021-08-27T00:08:19Z,42.805,6.029,13.2987,4.59999,2470.343,2021-8-27T02:09:38Z
2021-08-27T00:11:22Z,42.805,6.029,13.2983,4.59999,2470.366,2021-8-27T02:12:41Z
2021-08-27T00:14:25Z,42.805,6.029,13.2986,4.59999,2470.357,2021-8-27T02:15:45Z
2021-08-27T00:17:28Z,42.805,6.029,13.2983,4.59999,2470.343,2021-8-27T02:18:48Z
2021-08-27T00:20:31Z,42.805,6.029,13.2991,4.60000,2470.343,2021-8-27T02:21:51Z
2021-08-27T00:23:35Z,42.805,6.029,13.2987,4.59999,2470.357,2021-8-27T02:24:54Z
2021-08-27T00:26:38Z,42.805,6.029,13.2986,4.59999,2470.366,2021-8-27T02:27:57Z
2021-08-27T00:29:41Z,42.805,6.029,13.2988,4.59999,2470.366,2021-8-27T02:31:00Z
2021-08-27T00:32:44Z,42.805,6.029,13.2986,4.60000,2470.357,2021-8-27T02:34:03Z
2021-08-27T00:35:47Z,42.805,6.029,13.2985,4.59998,2470.343,2021-8-27T02:37:06Z
2021-08-27T00:38:50Z,42.805,6.029,13.2986,4.60001,2470.343,2021-8-27T02:40:10Z
2021-08-27T00:41:53Z,42.805,6.029,13.2985,4.59999,2470.38,2021-8-27T02:43:13Z
2021-08-27T00:44:56Z,42.805,6.029,13.2989,4.59999,2470.357,2021-8-27T02:46:16Z
2021-08-27T00:48:00Z,42.805,6.029,13.2987,4.59999,2470.357,2021-8-27T02:49:19Z
2021-08-27T00:51:03Z,42.805,6.029,13.2986,4.59999,2470.32,2021-8-27T02:52:22Z
2021-08-27T00:54:06Z,42.805,6.029,13.2986,4.59999,2470.334,2021-8-27T02:55:25Z
2021-08-27T00:57:09Z,42.805,6.029,13.2986,4.59999,2470.297,2021-8-27T02:58:28Z
2021-08-27T01:00:12Z,42.805,6.029,13.2986,4.59999,2470.343,2021-8-27T03:01:31Z
2021-08-27T01:03:15Z,42.805,6.029,13.2984,4.59999,2470.32,2021-8-27T03:04:35Z
2021-08-27T01:06:18Z,42.805,6.029,13.2986,4.59999,2470.31,2021-8-27T03:07:38Z
2021-08-27T01:09:21Z,42.805,6.029,13.2989,4.59999,2470.287,2021-8-27T03:10:41Z
2021-08-27T01:12:25Z,42.805,6.029,13.2983,4.59999,2470.273,2021-8-27T03:13:44Z
2021-08-27T01:15:28Z,42.805,6.029,13.2986,4.59998,2470.31,2021-8-27T03:16:47Z
2021-08-27T01:18:31Z,42.805,6.029,13.2985,4.59999,2470.32,2021-8-27T03:19:50Z
2021-08-27T01:21:34Z,42.805,6.029,13.2988,4.59998,2470.32,2021-8-27T03:22:53Z
2021-08-27T01:24:37Z,42.805,6.029,13.2986,4.59999,2470.273,2021-8-27T03:25:56Z
2021-08-27T01:27:40Z,42.805,6.029,13.2985,4.60000,2470.273,2021-8-27T03:29:00Z
2021-08-27T01:30:43Z,42.805,6.029,13.2988,4.59999,2470.273,2021-8-27T03:32:03Z
2021-08-27T01:33:46Z,42.805,6.029,13.2984,4.59999,2470.306,2021-8-27T03:35:06Z
2021-08-27T01:36:49Z,42.805,6.029,13.2986,4.60000,2470.297,2021-8-27T03:38:09Z
2021-08-27T01:39:53Z,42.805,6.029,13.2989,4.59999,2470.334,2021-8-27T03:41:12Z
2021-08-27T01:42:56Z,42.805,6.029,13.2987,4.60001,2470.31,2021-8-27T03:44:15Z
2021-08-27T01:45:59Z,42.805,6.029,13.2987,4.59999,2470.287,2021-8-27T03:47:18Z
2021-08-27T01:49:02Z,42.805,6.029,13.2986,4.59999,2470.273,2021-8-27T03:50:21Z
2021-08-27T01:52:05Z,42.805,6.029,13.2985,4.59997,2470.31,2021-8-27T03:53:25Z
2021-08-27T01:55:08Z,42.805,6.029,13.2987,4.59998,2470.26,2021-8-27T03:56:28Z
2021-08-27T01:58:11Z,42.805,6.029,13.2990,4.59997,2470.273,2021-8-27T03:59:31Z
2021-08-27T02:01:14Z,42.805,6.029,13.2988,4.59998,2470.25,2021-8-27T04:02:34Z
2021-08-27T02:04:18Z,42.805,6.029,13.2988,4.59999,2470.25,2021-8-27T04:05:37Z
2021-08-27T02:07:21Z,42.805,6.029,13.2984,4.59996,2470.24,2021-8-27T04:08:40Z
2021-08-27T02:10:24Z,42.805,6.029,13.2983,4.59997,2470.25,2021-8-27T04:11:43Z
2021-08-27T02:13:27Z,42.805,6.029,13.2983,4.59997,2470.264,2021-8-27T04:14:46Z
2021-08-27T02:16:30Z,42.805,6.029,13.2982,4.59999,2470.287,2021-8-27T04:17:50Z
2021-08-27T02:19:33Z,42.805,6.029,13.2988,4.59997,2470.273,2021-8-27T04:20:53Z
2021-08-27T02:22:36Z,42.805,6.029,13.2987,4.59997,2470.264,2021-8-27T04:23:56Z
2021-08-27T02:25:39Z,42.805,6.029,13.2988,4.59998,2470.25,2021-8-27T04:26:59Z
2021-08-27T02:28:43Z,42.805,6.029,13.2984,4.59998,2470.264,2021-8-27T04:30:02Z
2021-08-27T02:31:46Z,42.805,6.029,13.2983,4.59998,2470.24,2021-8-27T04:33:05Z
2021-08-27T02:34:49Z,42.805,6.029,13.2990,4.59997,2470.25,2021-8-27T04:36:08Z
2021-08-27T02:37:52Z,42.805,6.029,13.2985,4.59997,2470.264,2021-8-27T04:39:11Z
2021-08-27T02:40:55Z,42.805,6.029,13.2984,4.59998,2470.25,2021-8-27T04:42:15Z
2021-08-27T02:43:58Z,42.805,6.029,13.2985,4.59997,2470.227,2021-8-27T04:45:18Z
2021-08-27T02:47:01Z,42.805,6.029,13.2985,4.59996,2470.273,2021-8-27T04:48:21Z
2021-08-27T02:50:04Z,42.805,6.029,13.2988,4.59997,2470.203,2021-8-27T04:51:24Z
2021-08-27T02:53:08Z,42.805,6.029,13.2983,4.59998,2470.264,2021-8-27T04:54:27Z
2021-08-27T02:56:11Z,42.805,6.029,13.2983,4.59996,2470.227,2021-8-27T04:57:30Z
2021-08-27T02:59:14Z,42.805,6.029,13.2985,4.59996,2470.227,2021-8-27T05:00:33Z
2021-08-27T03:02:17Z,42.805,6.029,13.2983,4.59999,2470.25,2021-8-27T05:03:36Z
2021-08-27T03:05:20Z,42.805,6.029,13.2986,4.59997,2470.203,2021-8-27T05:06:40Z
2021-08-27T03:08:23Z,42.805,6.029,13.2984,4.59997,2470.25,2021-8-27T05:09:43Z
2021-08-27T03:11:26Z,42.805,6.029,13.2984,4.59996,2470.24,2021-8-27T05:12:46Z
2021-08-27T03:14:29Z,42.805,6.029,13.2988,4.59996,2470.264,2021-8-27T05:15:49Z
2021-08-27T03:17:33Z,42.805,6.029,13.2985,4.59999,2470.25,2021-8-27T05:18:52Z
2021-08-27T03:20:36Z,42.805,6.029,13.2984,4.59997,2470.25,2021-8-27T05:21:55Z
2021-08-27T03:23:39Z,42.805,6.029,13.2983,4.59997,2470.287,2021-8-27T05:24:58Z
2021-08-27T03:26:42Z,42.805,6.029,13.2986,4.59998,2470.25,2021-8-27T05:28:01Z
2021-08-27T03:29:45Z,42.805,6.029,13.2986,4.59996,2470.264,2021-8-27T05:31:05Z
2021-08-27T03:32:48Z,42.805,6.029,13.2983,4.59998,2470.217,2021-8-27T05:34:08Z
2021-08-27T03:35:51Z,42.805,6.029,13.2985,4.59998,2470.24,2021-8-27T05:37:11Z
2021-08-27T03:38:54Z,42.805,6.029,13.2990,4.59997,2470.217,2021-8-27T05:40:14Z
2021-08-27T03:41:57Z,42.805,6.029,13.2987,4.59996,2470.227,2021-8-27T05:43:17Z
2021-08-27T03:45:01Z,42.805,6.029,13.2984,4.59999,2470.24,2021-8-27T05:46:20Z
2021-08-27T03:48:04Z,42.805,6.029,13.2986,4.59998,2470.203,2021-8-27T05:49:23Z
2021-08-27T03:51:07Z,42.805,6.029,13.2985,4.59996,2470.25,2021-8-27T05:52:26Z
2021-08-27T03:54:10Z,42.805,6.029,13.2981,4.59997,2470.203,2021-8-27T05:55:29Z
2021-08-27T03:57:13Z,42.805,6.029,13.2982,4.59996,2470.227,2021-8-27T05:58:33Z
2021-08-27T04:00:16Z,42.805,6.029,13.2985,4.59996,2470.217,2021-8-27T06:01:36Z
2021-08-27T04:03:19Z,42.805,6.029,13.2987,4.59997,2470.227,2021-8-27T06:04:39Z
2021-08-27T04:06:22Z,42.805,6.029,13.2986,4.59997,2470.24,2021-8-27T06:07:42Z
2021-08-27T04:09:26Z,42.805,6.029,13.2986,4.59996,2470.24,2021-8-27T06:10:45Z
2021-08-27T04:12:29Z,42.805,6.029,13.2982,4.59996,2470.25,2021-8-27T06:13:48Z
2021-08-27T04:15:32Z,42.805,6.029,13.2986,4.59996,2470.24,2021-8-27T06:16:51Z
2021-08-27T04:18:35Z,42.805,6.029,13.2983,4.59996,2470.25,2021-8-27T06:19:54Z
2021-08-27T04:21:38Z,42.805,6.029,13.2986,4.59997,2470.217,2021-8-27T06:22:58Z
2021-08-27T04:24:41Z,42.805,6.029,13.2985,4.59996,2470.203,2021-8-27T06:26:01Z
2021-08-27T04:27:44Z,42.805,6.029,13.2986,4.59999,2470.227,2021-8-27T06:29:04Z
2021-08-27T04:30:47Z,42.805,6.029,13.2986,4.59998,2470.227,2021-8-27T06:32:07Z
2021-08-27T04:33:51Z,42.805,6.029,13.2989,4.59997,2470.203,2021-8-27T06:35:10Z
2021-08-27T04:36:54Z,42.805,6.029,13.2983,4.59996,2470.24,2021-8-27T06:38:13Z
2021-08-27T04:39:57Z,42.805,6.029,13.2985,4.59999,2470.203,2021-8-27T06:41:16Z
2021-08-27T04:43:00Z,42.805,6.029,13.2985,4.59998,2470.227,2021-8-27T06:44:19Z
2021-08-27T04:46:03Z,42.805,6.029,13.2989,4.59996,2470.24,2021-8-27T06:47:23Z
2021-08-27T04:49:06Z,42.805,6.029,13.2986,4.59996,2470.217,2021-8-27T06:50:26Z
2021-08-27T04:52:09Z,42.805,6.029,13.2986,4.59996,2470.217,2021-8-27T06:53:29Z
2021-08-27T04:55:12Z,42.805,6.029,13.2985,4.59997,2470.203,2021-8-27T06:56:32Z
2021-08-27T04:58:16Z,42.805,6.029,13.2982,4.59997,2470.203,2021-8-27T06:59:35Z
2021-08-27T05:01:19Z,42.805,6.029,13.2985,4.59997,2470.24,2021-8-27T07:02:38Z
2021-08-27T05:04:22Z,42.805,6.029,13.2982,4.59996,2470.24,2021-8-27T07:05:41Z
2021-08-27T05:07:25Z,42.805,6.029,13.2985,4.59997,2470.203,2021-8-27T07:08:44Z
2021-08-27T05:10:28Z,42.805,6.029,13.2982,4.59997,2470.24,2021-8-27T07:11:48Z
2021-08-27T05:13:31Z,42.805,6.029,13.2983,4.59996,2470.203,2021-8-27T07:14:51Z
2021-08-27T05:16:34Z,42.805,6.029,13.2987,4.59997,2470.203,2021-8-27T07:17:54Z
2021-08-27T05:19:37Z,42.805,6.029,13.2983,4.59996,2470.217,2021-8-27T07:20:57Z
2021-08-27T05:22:41Z,42.805,6.029,13.2982,4.59998,2470.227,2021-8-27T07:24:00Z
2021-08-27T05:25:44Z,42.805,6.029,13.2983,4.59996,2470.227,2021-8-27T07:27:03Z
2021-08-27T05:28:47Z,42.805,6.029,13.2984,4.59996,2470.217,2021-8-27T07:30:06Z
2021-08-27T05:31:50Z,42.805,6.029,13.2984,4.59996,2470.25,2021-8-27T07:33:09Z
2021-08-27T05:34:53Z,42.805,6.029,13.2984,4.59996,2470.227,2021-8-27T07:36:13Z
2021-08-27T05:37:56Z,42.805,6.029,13.2982,4.59996,2470.227,2021-8-27T07:39:16Z
2021-08-27T05:40:59Z,42.805,6.029,13.2986,4.59998,2470.25,2021-8-27T07:42:19Z
2021-08-27T05:44:02Z,42.805,6.029,13.2987,4.59996,2470.227,2021-8-27T07:45:22Z
2021-08-27T05:47:06Z,42.805,6.029,13.2987,4.59997,2470.264,2021-8-27T07:48:25Z
2021-08-27T05:50:09Z,42.805,6.029,13.2986,4.59997,2470.25,2021-8-27T07:51:28Z
2021-08-27T05:53:12Z,42.805,6.029,13.2986,4.59996,2470.25,2021-8-27T07:54:31Z
2021-08-27T05:56:15Z,42.805,6.029,13.2986,4.59998,2470.227,2021-8-27T07:57:34Z
2021-08-27T05:59:18Z,42.805,6.029,13.2983,4.59996,2470.24,2021-8-27T08:00:37Z
2021-08-27T06:02:21Z,42.805,6.029,13.2986,4.59996,2470.273,2021-8-27T08:03:41Z
2021-08-27T06:05:24Z,42.805,6.029,13.2986,4.59997,2470.264,2021-8-27T08:06:44Z
2021-08-27T06:08:27Z,42.805,6.029,13.2987,4.59997,2470.24,2021-8-27T08:09:47Z
2021-08-27T06:11:30Z,42.805,6.029,13.2984,4.59998,2470.273,2021-8-27T08:12:50Z
2021-08-27T06:14:34Z,42.805,6.029,13.2985,4.59996,2470.24,2021-8-27T08:15:53Z
2021-08-27T06:17:37Z,42.805,6.029,13.2986,4.59996,2470.227,2021-8-27T08:18:56Z
2021-08-27T06:20:40Z,42.805,6.029,13.2986,4.59996,2470.227,2021-8-27T08:21:59Z
2021-08-27T06:23:43Z,42.805,6.029,13.2984,4.59996,2470.24,2021-8-27T08:25:02Z
2021-08-27T06:26:46Z,42.805,6.029,13.2986,4.59998,2470.25,2021-8-27T08:28:06Z
2021-08-27T06:29:49Z,42.805,6.029,13.2985,4.59996,2470.264,2021-8-27T08:31:09Z
2021-08-27T06:32:52Z,42.805,6.029,13.2986,4.59996,2470.264,2021-8-27T08:34:12Z
2021-08-27T06:35:56Z,42.805,6.029,13.2982,4.59996,2470.227,2021-8-27T08:37:15Z
2021-08-27T06:38:59Z,42.805,6.029,13.2985,4.59996,2470.273,2021-8-27T08:40:18Z
2021-08-27T06:42:02Z,42.805,6.029,13.2984,4.59996,2470.25,2021-8-27T08:43:21Z
2021-08-27T06:45:05Z,42.805,6.029,13.2986,4.59997,2470.287,2021-8-27T08:46:24Z
2021-08-27T06:48:08Z,42.805,6.029,13.2983,4.59996,2470.287,2021-8-27T08:49:27Z
2021-08-27T06:51:11Z,42.805,6.029,13.2983,4.59996,2470.25,2021-8-27T08:52:31Z
2021-08-27T06:54:14Z,42.805,6.029,13.2985,4.59996,2470.227,2021-8-27T08:55:34Z
2021-08-27T06:57:17Z,42.805,6.029,13.2983,4.59998,2470.25,2021-8-27T08:58:37Z
2021-08-27T07:00:20Z,42.805,6.029,13.2983,4.59996,2470.25,2021-8-27T09:01:40Z
2021-08-27T07:03:24Z,42.805,6.029,13.2986,4.59996,2470.264,2021-8-27T09:04:43Z
2021-08-27T07:06:27Z,42.805,6.029,13.2984,4.59996,2470.273,2021-8-27T09:07:46Z
2021-08-27T07:09:30Z,42.805,6.029,13.2986,4.59997,2470.31,2021-8-27T09:10:49Z
2021-08-27T07:12:33Z,42.805,6.029,13.2983,4.59997,2470.273,2021-8-27T09:13:52Z
2021-08-27T07:15:36Z,42.805,6.029,13.2986,4.59996,2470.273,2021-8-27T09:16:56Z
2021-08-27T07:18:39Z,42.805,6.029,13.2987,4.59997,2470.287,2021-8-27T09:19:59Z
2021-08-27T07:21:42Z,42.805,6.029,13.2984,4.59998,2470.273,2021-8-27T09:23:02Z
2021-08-27T07:24:45Z,42.805,6.029,13.2986,4.59998,2470.273,2021-8-27T09:26:05Z
2021-08-27T07:27:49Z,42.805,6.029,13.2983,4.59997,2470.273,2021-8-27T09:29:08Z
2021-08-27T07:30:52Z,42.805,6.029,13.2983,4.59999,2470.273,2021-8-27T09:32:11Z
2021-08-27T07:33:55Z,42.805,6.029,13.2984,4.59999,2470.31,2021-8-27T09:35:14Z
2021-08-27T07:36:58Z,42.805,6.029,13.2988,4.59998,2470.32,2021-8-27T09:38:17Z
2021-08-27T07:40:01Z,42.805,6.029,13.2986,4.59997,2470.31,2021-8-27T09:41:20Z
2021-08-27T07:43:04Z,42.805,6.029,13.2989,4.59998,2470.297,2021-8-27T09:44:24Z
2021-08-27T07:46:07Z,42.805,6.029,13.2982,4.59999,2470.297,2021-8-27T09:47:27Z
2021-08-27T07:49:10Z,42.805,6.029,13.2984,4.59996,2470.32,2021-8-27T09:50:30Z
2021-08-27T07:52:14Z,42.805,6.029,13.2987,4.59998,2470.273,2021-8-27T09:53:33Z
2021-08-27T07:55:17Z,42.805,6.029,13.2983,4.59997,2470.32,2021-8-27T09:56:36Z
2021-08-27T07:58:20Z,42.805,6.029,13.2988,4.59999,2470.334,2021-8-27T09:59:39Z
2021-08-27T08:01:23Z,42.805,6.029,13.2986,4.59999,2470.31,2021-8-27T10:02:42Z
2021-08-27T08:04:26Z,42.805,6.029,13.2987,4.59998,2470.297,2021-8-27T10:05:46Z
2021-08-27T08:07:29Z,42.805,6.029,13.2985,4.59998,2470.297,2021-8-27T10:08:49Z
2021-08-27T08:10:32Z,42.805,6.029,13.2984,4.59998,2470.31,2021-8-27T10:11:52Z
2021-08-27T08:13:35Z,42.805,6.029,13.2984,4.59999,2470.297,2021-8-27T10:14:55Z
2021-08-27T08:16:39Z,42.805,6.029,13.2987,4.59999,2470.32,2021-8-27T10:17:58Z
2021-08-27T08:19:42Z,42.805,6.029,13.2987,4.59999,2470.343,2021-8-27T10:21:01Z
2021-08-27T08:22:45Z,42.805,6.029,13.2984,4.59999,2470.297,2021-8-27T10:24:04Z
2021-08-27T08:25:48Z,42.805,6.029,13.2986,4.59998,2470.38,2021-8-27T10:27:07Z
2021-08-27T08:28:51Z,42.805,6.029,13.2982,4.59999,2470.297,2021-8-27T10:30:11Z
2021-08-27T08:31:54Z,42.805,6.029,13.2986,4.59999,2470.343,2021-8-27T10:33:14Z
2021-08-27T08:34:57Z,42.805,6.029,13.2986,4.59998,2470.32,2021-8-27T10:36:17Z
2021-08-27T08:38:00Z,42.805,6.029,13.2989,4.59998,2470.32,2021-8-27T10:39:20Z
2021-08-27T08:41:04Z,42.805,6.029,13.2986,4.59999,2470.357,2021-8-27T10:42:23Z
2021-08-27T08:44:07Z,42.805,6.029,13.2985,4.59999,2470.38,2021-8-27T10:45:26Z
2021-08-27T08:47:10Z,42.805,6.029,13.2986,4.59999,2470.334,2021-8-27T10:48:29Z
2021-08-27T08:50:13Z,42.805,6.029,13.2986,4.59999,2470.32,2021-8-27T10:51:32Z
2021-08-27T08:53:16Z,42.805,6.029,13.2986,4.59998,2470.334,2021-8-27T10:54:36Z
2021-08-27T08:56:19Z,42.805,6.029,13.2983,4.59999,2470.343,2021-8-27T10:57:39Z
2021-08-27T08:59:22Z,42.805,6.029,13.2985,4.59999,2470.366,2021-8-27T11:00:42Z
2021-08-27T09:02:25Z,42.805,6.029,13.2990,4.59999,2470.32,2021-8-27T11:03:45Z
2021-08-27T09:05:29Z,42.805,6.029,13.2983,4.59998,2470.343,2021-8-27T11:06:48Z
2021-08-27T09:08:32Z,42.805,6.029,13.2983,4.59999,2470.32,2021-8-27T11:09:51Z
2021-08-27T09:11:35Z,42.805,6.029,13.2986,4.59998,2470.366,2021-8-27T11:12:54Z
2021-08-27T09:14:38Z,42.805,6.029,13.2991,4.59999,2470.366,2021-8-27T11:15:57Z
2021-08-27T09:17:41Z,42.805,6.029,13.2984,4.59999,2470.334,2021-8-27T11:19:01Z
2021-08-27T09:20:44Z,42.805,6.029,13.2985,4.59999,2470.38,2021-8-27T11:22:04Z
2021-08-27T09:23:47Z,42.805,6.029,13.2985,4.60001,2470.334,2021-8-27T11:25:07Z
2021-08-27T09:26:50Z,42.805,6.029,13.2986,4.60000,2470.357,2021-8-27T11:28:10Z
2021-08-27T09:29:54Z,42.805,6.029,13.2983,4.59997,2470.366,2021-8-27T11:31:13Z
2021-08-27T09:32:57Z,42.805,6.029,13.2984,4.59999,2470.38,2021-8-27T11:34:16Z
2021-08-27T09:36:00Z,42.805,6.029,13.2984,4.59998,2470.38,2021-8-27T11:37:19Z
2021-08-27T09:39:03Z,42.805,6.029,13.2990,4.60000,2470.38,2021-8-27T11:40:22Z
2021-08-27T09:42:06Z,42.805,6.029,13.2985,4.59999,2470.366,2021-8-27T11:43:26Z
2021-08-27T09:45:09Z,42.805,6.029,13.2988,4.59998,2470.357,2021-8-27T11:46:29Z
2021-08-27T09:48:12Z,42.805,6.029,13.2982,4.59998,2470.38,2021-8-27T11:49:32Z
2021-08-27T09:51:16Z,42.805,6.029,13.2987,4.59999,2470.38,2021-8-27T11:52:35Z
2021-08-27T09:54:19Z,42.805,6.029,13.2988,4.60000,2470.38,2021-8-27T11:55:38Z
2021-08-27T09:57:22Z,42.805,6.029,13.2983,4.59997,2470.39,2021-8-27T11:58:41Z
2021-08-27T10:00:25Z,42.805,6.029,13.2985,4.59999,2470.366,2021-8-27T12:01:44Z
2021-08-27T10:03:28Z,42.805,6.029,13.2985,4.59999,2470.39,2021-8-27T12:04:47Z
2021-08-27T10:06:31Z,42.805,6.029,13.2985,4.59998,2470.366,2021-8-27T12:07:51Z
2021-08-27T10:09:34Z,42.805,6.029,13.2987,4.59998,2470.366,2021-8-27T12:10:54Z
2021-08-27T10:12:37Z,42.805,6.029,13.2989,4.59999,2470.343,2021-8-27T12:13:57Z
2021-08-27T10:15:41Z,42.805,6.029,13.2983,4.59998,2470.38,2021-8-27T12:17:00Z
2021-08-27T10:18:44Z,42.805,6.029,13.2986,4.59997,2470.343,2021-8-27T12:20:03Z
2021-08-27T10:21:47Z,42.805,6.029,13.2983,4.59998,2470.343,2021-8-27T12:23:06Z
2021-08-27T10:24:50Z,42.805,6.029,13.2984,4.59998,2470.38,2021-8-27T12:26:09Z
2021-08-27T10:27:53Z,42.805,6.029,13.2984,4.59998,2470.32,2021-8-27T12:29:12Z
2021-08-27T10:30:56Z,42.805,6.029,13.2986,4.59999,2470.343,2021-8-27T12:32:16Z
2021-08-27T10:33:59Z,42.805,6.029,13.2986,4.59998,2470.343,2021-8-27T12:35:19Z
2021-08-27T10:37:02Z,42.805,6.029,13.2985,4.59999,2470.343,2021-8-27T12:38:22Z
2021-08-27T10:40:06Z,42.805,6.029,13.2986,4.59999,2470.357,2021-8-27T12:41:25Z
2021-08-27T10:43:09Z,42.805,6.029,13.2987,4.59998,2470.343,2021-8-27T12:44:28Z
2021-08-27T10:46:12Z,42.805,6.029,13.2987,4.59999,2470.38,2021-8-27T12:47:31Z
2021-08-27T10:49:15Z,42.805,6.029,13.2986,4.59999,2470.366,2021-8-27T12:50:34Z
2021-08-27T10:52:18Z,42.805,6.029,13.2986,4.60000,2470.357,2021-8-27T12:53:37Z
2021-08-27T10:55:21Z,42.805,6.029,13.2984,4.59999,2470.343,2021-8-27T12:56:41Z
2021-08-27T10:58:24Z,42.805,6.029,13.2990,4.59998,2470.334,2021-8-27T12:59:44Z
2021-08-27T11:01:27Z,42.805,6.029,13.2986,4.59999,2470.343,2021-8-27T13:02:47Z
2021-08-27T11:04:31Z,42.805,6.029,13.2985,4.60000,2470.357,2021-8-27T13:05:50Z
2021-08-27T11:07:34Z,42.805,6.029,13.2984,4.59999,2470.357,2021-8-27T13:08:53Z
2021-08-27T11:10:37Z,42.805,6.029,13.2982,4.59998,2470.334,2021-8-27T13:11:56Z
2021-08-27T11:13:40Z,42.805,6.029,13.2986,4.59998,2470.32,2021-8-27T13:14:59Z
2021-08-27T11:16:43Z,42.805,6.029,13.2986,4.59999,2470.32,2021-8-27T13:18:03Z
2021-08-27T11:19:46Z,42.805,6.029,13.2984,4.59999,2470.334,2021-8-27T13:21:06Z
2021-08-27T11:22:49Z,42.805,6.029,13.2985,4.59999,2470.31,2021-8-27T13:24:09Z
2021-08-27T11:25:52Z,42.805,6.029,13.2986,4.59999,2470.32,2021-8-27T13:27:12Z
2021-08-27T11:28:56Z,42.805,6.029,13.2987,4.59999,2470.32,2021-8-27T13:30:15Z
2021-08-27T11:31:59Z,42.805,6.029,13.2983,4.59998,2470.283,2021-8-27T13:33:18Z
2021-08-27T11:35:02Z,42.805,6.029,13.2990,4.59999,2470.343,2021-8-27T13:36:21Z
2021-08-27T11:38:05Z,42.805,6.029,13.2984,4.59999,2470.32,2021-8-27T13:39:24Z
2021-08-27T11:41:08Z,42.805,6.029,13.2984,4.59999,2470.297,2021-8-27T13:42:28Z
2021-08-27T11:44:11Z,42.805,6.029,13.2983,4.59999,2470.32,2021-8-27T13:45:31Z
2021-08-27T11:47:14Z,42.805,6.029,13.2986,4.59999,2470.334,2021-8-27T13:48:34Z
2021-08-27T11:50:17Z,42.805,6.029,13.2983,4.59997,2470.287,2021-8-27T13:51:37Z
2021-08-27T11:53:21Z,42.805,6.029,13.2986,4.59999,2470.297,2021-8-27T13:54:40Z
2021-08-27T11:56:24Z,42.805,6.029,13.2988,4.60000,2470.32,2021-8-27T13:57:43Z
2021-08-27T11:59:27Z,42.805,6.029,13.2982,4.59999,2470.343,2021-8-27T14:00:46Z
2021-08-27T12:02:30Z,42.805,6.029,13.2992,4.59998,2470.343,2021-8-27T14:03:49Z
2021-08-27T12:05:33Z,42.805,6.029,13.2986,4.59998,2470.297,2021-8-27T14:06:53Z
2021-08-27T12:08:36Z,42.805,6.029,13.2985,4.59998,2470.31,2021-8-27T14:09:56Z
2021-08-27T12:11:39Z,42.805,6.029,13.2984,4.59999,2470.31,2021-8-27T14:12:59Z
2021-08-27T12:14:42Z,42.805,6.029,13.2985,4.59999,2470.32,2021-8-27T14:16:02Z
2021-08-27T12:17:46Z,42.805,6.029,13.2985,4.59999,2470.32,2021-8-27T14:19:05Z
2021-08-27T12:20:49Z,42.805,6.029,13.2987,4.59999,2470.297,2021-8-27T14:22:08Z
2021-08-27T12:23:52Z,42.805,6.029,13.2989,4.59999,2470.297,2021-8-27T14:25:11Z
2021-08-27T12:26:55Z,42.805,6.029,13.2986,4.59999,2470.273,2021-8-27T14:28:14Z
2021-08-27T12:29:58Z,42.805,6.029,13.2986,4.59998,2470.297,2021-8-27T14:31:18Z
2021-08-27T12:33:01Z,42.805,6.029,13.2986,4.59998,2470.273,2021-8-27T14:34:21Z
2021-08-27T12:36:04Z,42.805,6.029,13.2983,4.59998,2470.273,2021-8-27T14:37:24Z
2021-08-27T12:39:08Z,42.805,6.029,13.2986,4.59998,2470.297,2021-8-27T14:40:27Z
2021-08-27T12:42:11Z,42.805,6.029,13.2986,4.59997,2470.297,2021-8-27T14:43:30Z
2021-08-27T12:45:14Z,42.805,6.029,13.2985,4.59999,2470.297,2021-8-27T14:46:33Z
2021-08-27T12:48:17Z,42.805,6.029,13.2986,4.59999,2470.273,2021-8-27T14:49:36Z
2021-08-27T12:51:20Z,42.805,6.029,13.2985,4.59998,2470.287,2021-8-27T14:52:40Z
2021-08-27T12:54:23Z,42.805,6.029,13.2984,4.59998,2470.31,2021-8-27T14:55:43Z
2021-08-27T12:57:26Z,42.805,6.029,13.2986,4.59999,2470.297,2021-8-27T14:58:46Z
2021-08-27T13:00:29Z,42.805,6.029,13.2984,4.59999,2470.287,2021-8-27T15:01:49Z
2021-08-27T13:03:33Z,42.805,6.029,13.2987,4.59998,2470.273,2021-8-27T15:04:52Z
2021-08-27T13:06:36Z,42.805,6.029,13.2986,4.59998,2470.273,2021-8-27T15:07:55Z
2021-08-27T13:09:39Z,42.805,6.029,13.2987,4.59998,2470.297,2021-8-27T15:10:58Z
2021-08-27T13:12:42Z,42.805,6.029,13.2985,4.59998,2470.273,2021-8-27T15:14:01Z
2021-08-27T13:15:45Z,42.805,6.029,13.2984,4.59999,2470.287,2021-8-27T15:17:05Z
2021-08-27T13:18:48Z,42.805,6.029,13.2987,4.59999,2470.287,2021-8-27T15:20:08Z
2021-08-27T13:21:51Z,42.805,6.029,13.2986,4.59996,2470.25,2021-8-27T15:23:11Z
2021-08-27T13:24:54Z,42.805,6.029,13.2987,4.59997,2470.25,2021-8-27T15:26:14Z
2021-08-27T13:27:58Z,42.805,6.029,13.2984,4.59999,2470.25,2021-8-27T15:29:17Z
2021-08-27T13:31:01Z,42.805,6.029,13.2983,4.59999,2470.25,2021-8-27T15:32:20Z
2021-08-27T13:34:04Z,42.805,6.029,13.2983,4.59999,2470.25,2021-8-27T15:35:23Z
2021-08-27T13:37:07Z,42.805,6.029,13.2982,4.59997,2470.24,2021-8-27T15:38:26Z
2021-08-27T13:40:10Z,42.805,6.029,13.2987,4.59998,2470.25,2021-8-27T15:41:30Z
2021-08-27T13:43:13Z,42.805,6.029,13.2986,4.59997,2470.287,2021-8-27T15:44:33Z
2021-08-27T13:46:16Z,42.805,6.029,13.2983,4.60000,2470.25,2021-8-27T15:47:36Z
2021-08-27T13:49:19Z,42.805,6.029,13.2986,4.59998,2470.264,2021-8-27T15:50:39Z
2021-08-27T13:52:23Z,42.805,6.029,13.2986,4.59996,2470.25,2021-8-27T15:53:42Z
2021-08-27T13:55:26Z,42.805,6.029,13.2983,4.59998,2470.227,2021-8-27T15:56:45Z
2021-08-27T13:58:29Z,42.805,6.029,13.2986,4.59998,2470.264,2021-8-27T15:59:48Z
2021-08-27T14:01:32Z,42.805,6.029,13.2985,4.59997,2470.264,2021-8-27T16:02:51Z
2021-08-27T14:04:35Z,42.805,6.029,13.2986,4.59997,2470.25,2021-8-27T16:05:55Z
2021-08-27T14:07:38Z,42.805,6.029,13.2984,4.59996,2470.227,2021-8-27T16:08:58Z
2021-08-27T14:10:41Z,42.805,6.029,13.2986,4.59997,2470.227,2021-8-27T16:12:01Z
2021-08-27T14:13:45Z,42.805,6.029,13.2983,4.59998,2470.264,2021-8-27T16:15:04Z
2021-08-27T14:16:48Z,42.805,6.029,13.2982,4.59996,2470.227,2021-8-27T16:18:07Z
2021-08-27T14:19:51Z,42.805,6.029,13.2986,4.59997,2470.264,2021-8-27T16:21:10Z
2021-08-27T14:22:54Z,42.805,6.029,13.2982,4.59997,2470.227,2021-8-27T16:24:13Z
2021-08-27T14:25:57Z,42.805,6.029,13.2983,4.59997,2470.227,2021-8-27T16:27:17Z
2021-08-27T14:29:00Z,42.805,6.029,13.2984,4.59998,2470.24,2021-8-27T16:30:20Z
2021-08-27T14:32:03Z,42.805,6.029,13.2983,4.59999,2470.227,2021-8-27T16:33:23Z
2021-08-27T14:35:06Z,42.805,6.029,13.2986,4.59999,2470.264,2021-8-27T16:36:26Z
2021-08-27T14:38:10Z,42.805,6.029,13.2983,4.59996,2470.264,2021-8-27T16:39:29Z
2021-08-27T14:41:13Z,42.805,6.029,13.2987,4.59997,2470.227,2021-8-27T16:42:32Z
2021-08-27T14:44:16Z,42.805,6.029,13.2986,4.59997,2470.24,2021-8-27T16:45:35Z
2021-08-27T14:47:19Z,42.805,6.029,13.2985,4.59997,2470.227,2021-8-27T16:48:38Z
2021-08-27T14:50:22Z,42.805,6.029,13.2986,4.59997,2470.213,2021-8-27T16:51:42Z
2021-08-27T14:53:25Z,42.805,6.029,13.2983,4.59997,2470.264,2021-8-27T16:54:45Z
2021-08-27T14:56:28Z,42.805,6.029,13.2986,4.59998,2470.24,2021-8-27T16:57:48Z
2021-08-27T14:59:31Z,42.805,6.029,13.2986,4.59997,2470.227,2021-8-27T17:00:51Z
2021-08-27T15:02:35Z,42.805,6.029,13.2987,4.59998,2470.264,2021-8-27T17:03:54Z
2021-08-27T15:05:38Z,42.805,6.029,13.2986,4.59999,2470.203,2021-8-27T17:06:57Z
2021-08-27T15:08:41Z,42.805,6.029,13.2983,4.59996,2470.24,2021-8-27T17:10:00Z
2021-08-27T15:11:44Z,42.805,6.029,13.2982,4.59997,2470.24,2021-8-27T17:13:03Z
2021-08-27T15:14:47Z,42.805,6.029,13.2984,4.59996,2470.264,2021-8-27T17:16:07Z